Regional Weather Roundup
Issued by NWS

Home | Current Version | Previous Version | Text Only | Print | Product List | Glossary On
Versions: 1 2 3 4 5 6 7 8 9 10 11 12 13 14 15 16 17 18 19 20 21 22 23 24 25 26 27 28 29 30 31 32
000
ASUS45 KGTF 190410
RWRMT
MONTANA HOURLY WEATHER ROUNDUP
NATIONAL WEATHER SERVICE GREAT FALLS MT
1000 PM MDT SAT APR 18 2015

NOTE: "FAIR" INDICATES FEW OR NO CLOUDS BELOW 12000 FEET WITH NO
SIGNIFICANT WEATHER AND/OR OBSTRUCTIONS TO VISIBILITY.

MTZ001>007-043-190500-
WEST OF THE DIVIDE

CITY           SKY/WX    TMP DP  RH WIND       PRES   REMARKS
KALISPELL      CLEAR     48  29  47 N12       30.13R
MISSOULA       CLEAR     53  24  32 E13       30.14R
BUTTE          CLEAR     39  25  57 S8G18     30.21R
DEER LODGE       N/A     37  27  65 N8        30.27R WCI  31
EUREKA           N/A     48  19  32 CALM      30.15R
HAMILTON         N/A     55  23  28 N16       30.13R
LIBBY            N/A     48  25  40 SE5       30.15R
$$

MTZ008-052>055-190500-
SOUTHWEST MONTANA

CITY           SKY/WX    TMP DP  RH WIND       PRES   REMARKS
BOZEMAN        CLEAR     38  26  62 E12       30.23R WCI  30
DILLON         CLEAR     39  26  59 E16       30.17R WCI  30
$$

MTZ009-010-012-014-046-048-049-054-190500-
EAST SLOPES AND CENTRAL MONTANA

CITY           SKY/WX    TMP DP  RH WIND       PRES   REMARKS
CUT BANK       PTCLDY    36  26  67 N8        30.27R WCI  30
GREAT FALLS    CLOUDY    41  30  65 N3        30.27R
MALMSTROM AFB  MOCLDY    42  29  61 NW5       30.27S
HELENA         PTCLDY    38  28  67 W8        30.27R
$$

MTZ011-013-016-021-045-047-050-051-190500-
NORTH CENTRAL MONTANA

CITY           SKY/WX    TMP DP  RH WIND       PRES   REMARKS
HAVRE          CLEAR     36  19  50 NW7       30.24R WCI  30
LEWISTOWN      PTCLDY    37  30  75 W10       30.24R WCI  30
FORT BENTON      N/A     41  25  52 W6        30.28R
$$

MTZ017>020-022>042-056>058-061-062-190500-
EASTERN PLAINS

CITY           SKY/WX    TMP DP  RH WIND       PRES   REMARKS
BAKER          MOCLDY    47  27  45 NW14      30.06R
BILLINGS       PTCLDY    41  27  57 N12       30.23R
GLASGOW        CLEAR     43  19  38 NW13      30.13R
JORDAN           N/A     45  18  34 NW13      30.16R
LIVINGSTON     CLOUDY    42  25  50 CALM      30.25R
MILES CITY     PTCLDY    42  21  43 NW10      30.13R
SIDNEY         PTCLDY    48  27  43 NW9       30.06S
WOLF POINT     CLEAR     43  22  43 NW13      30.11R
BIG TIMBER       N/A     39  25  56 NE5       30.27R
FORSYTH          N/A     46  21  36 NW10G17   30.17R
PLENTYWOOD       N/A     39  27  60 NW7       30.05R
POPLAR           N/A     43  23  45 NW12      30.09S
$$

REGIONAL REPORTS...DAKOTAS

CITY           SKY/WX    TMP DP  RH WIND       PRES   REMARKS
WILLISTON      PTCLDY    47  27  45 NW16      30.03R
MINOT          LGT RAIN  49  43  80 W9        29.93S
DICKINSON      CLOUDY    46  36  68 NW12      29.97S
BEACH          MOCLDY    45  27  49 NW18G24   30.05R
CROSBY         FAIR      39  27  60 NW12      30.01S WCI  32
WATFORD CITY   FAIR      46  27  46 N20G29    30.01R
BISMARCK       LGT RAIN  48  45  89 W6        29.92F
GRAND FORKS    CLOUDY    55  33  43 W8        29.82F
FARGO          CLOUDY    64  32  30 SE13      29.81F
BUFFALO SD       N/A     47  34  60 N17       29.95R
RAPID CITY     RAIN      46  44  93 N17       29.95F
$$

REGIONAL REPORTS...WYOMING/IDAHO/WASHINGTON

CITY           SKY/WX    TMP DP  RH WIND       PRES   REMARKS
GILLETTE       CLOUDY    43  32  65 N24G35    30.11R
SHERIDAN       CLOUDY    41  32  70 NW15      30.21S
BUFFALO WY     MOCLDY    39  32  76 NW28G39   30.17R WCI  28
CODY           CLOUDY    37  34  87 N10       30.24R WCI  30
YELLOWSTONE LA   N/A     32  19  58 CALM      30.21R
IDAHO FALLS    CLEAR     53  27  36 NE13      30.06R
SALMON         CLEAR     50  18  27 NE7       30.10R
BOISE          CLEAR     61  22  22 NW15      30.05R
SPOKANE        PTCLDY    59  18  20 N5        30.16R
$$

REGIONAL REPORTS...ALBERTA

CITY           SKY/WX    TMP DP  RH WIND       PRES   REMARKS
EDMONTON       CLEAR     39  19  45 NW5       30.26R
CALGARY        PTCLDY    34  16  47 NE7       30.28R WCI  28
LETHBRIDGE     CLEAR     37  23  56 E5        30.28R
MEDICINE HAT   CLEAR     41  21  45 NW10      30.25R
$$

REGIONAL REPORTS...SASKATCHEWAN

CITY           SKY/WX    TMP DP  RH WIND       PRES   REMARKS
SWIFT CURRENT  CLOUDY    41  28  60 NW24G32   30.10S
REGINA         MOCLDY    43  30  61 W12       30.00F
SASKATOON      MOCLDY    41  34  75 NW13G22   30.06R
$$



USA.gov is the U.S. government's official web portal to all federal, state and local government web resources and services.